EW0991 Weather Reports


Display with metric or nautical units.
time (UTC)temp
F
wind
direction
speed
MPH
gust
MPH
rain 1hr
in
rain 24hr
in
rain mn
in
humidity
%
barometer
mb
20260831233018 73 229 0.0 0.0 0.00 0.00 0.00 85 1018.3
20260831231529 74 229 0.0 0.0 0.00 0.00 0.00 82 1018.4
20260831230024 76 229 0.0 0.0 0.00 0.00 0.00 79 1018.4
20260831224542 76 231 0.0 0.0 0.00 0.00 0.00 76 1018.6
20260831223015 76 234 0.0 0.0 0.00 0.00 0.00 78 1018.6
20260831221514 76 239 0.0 0.0 0.00 0.00 0.00 75 1018.8
20260831220014 77 209 0.0 0.0 0.00 0.00 0.00 76 1018.9
20260831214509 75 211 0.0 0.0 0.00 0.00 0.00 81 1019.0
20260831213009 74 263 0.0 0.0 0.00 0.00 0.00 82 1019.0
20260831211508 74 242 0.0 0.0 0.00 0.00 0.00 82 1019.2
20260831210014 74 246 0.0 0.0 0.00 0.00 0.00 82 1019.3
20260831204506 74 244 0.0 0.0 0.00 0.00 0.00 82 1019.2
20260831203013 75 271 0.0 0.0 0.00 0.00 0.00 80 1019.2
20260831201505 74 236 0.0 0.0 0.00 0.00 0.00 81 1019.4
20260831200004 74 242 0.0 0.0 0.00 0.00 0.00 82 1019.6
20260831194508 74 240 0.0 0.0 0.00 0.00 0.00 83 1019.8
20260831193046 74 233 0.0 0.0 0.00 0.00 0.00 81 1019.8
20260831191503 75 190 0.0 0.0 0.00 0.00 0.00 78 1020.0
20260831190126 75 264 0.0 0.0 0.00 0.00 0.00 77 1020.2
20260831184600 76 65 0.0 0.0 0.00 0.00 0.00 75 1020.4
20260831183101 75 65 0.0 0.0 0.00 0.00 0.00 75 1020.4
20260831181603 75 65 0.0 0.0 0.00 0.00 0.00 77 1020.4
20260831180057 75 77 0.0 0.0 0.00 0.00 0.00 76 1020.4
20260831174557 76 81 0.0 0.0 0.00 0.00 0.00 75 1020.5
20260831173057 76 82 0.0 0.0 0.00 0.00 0.00 74 1020.5
20260831171557 76 262 0.0 0.0 0.00 0.00 0.00 73 1020.5
20260831170104 76 261 0.0 0.0 0.00 0.00 0.00 74 1020.6
20260831164557 75 54 0.0 0.0 0.00 0.00 0.00 76 1020.6
20260831163054 76 345 0.0 0.0 0.00 0.00 0.00 75 1020.5
20260831161552 75 72 0.0 0.0 0.00 0.00 0.00 75 1020.7
20260831160052 75 95 0.0 0.0 0.00 0.00 0.00 74 1020.7
20260831154615 74 63 0.0 0.0 0.00 0.00 0.00 78 1020.7
20260831153047 73 64 0.0 0.0 0.00 0.00 0.00 76 1020.8
20260831151606 73 65 0.0 0.0 0.00 0.00 0.00 77 1021.1
20260831150044 73 65 0.0 0.0 0.00 0.00 0.00 77 1021.0
20260831144544 72 8 0.0 0.0 0.00 0.00 0.00 78 1021.2
20260831143044 72 8 0.0 0.0 0.00 0.00 0.00 79 1021.2
20260831141543 72 268 0.0 0.0 0.00 0.00 0.00 79 1021.2
20260831140042 72 53 0.0 0.0 0.00 0.00 0.00 79 1021.2
20260831134547 71 54 0.0 0.0 0.00 0.00 0.00 81 1021.0
20260831133041 71 67 0.0 0.0 0.00 0.00 0.00 82 1020.9
20260831131543 70 66 0.0 0.0 0.00 0.00 0.00 84 1020.9
20260831130044 70 67 0.0 0.0 0.00 0.00 0.00 86 1021.0
20260831124547 69 68 0.0 0.0 0.00 0.00 0.00 87 1020.9
20260831123038 69 74 0.0 0.0 0.00 0.00 0.00 88 1020.9
20260831121545 68 75 0.0 0.0 0.00 0.00 0.00 90 1021.1
20260831120039 68 75 0.0 0.0 0.00 0.00 0.00 92 1020.9
20260831114537 68 75 0.0 0.0 0.00 0.00 0.00 92 1021.0
20260831113035 67 75 0.0 0.0 0.00 0.00 0.00 92 1020.7
20260831111529 0 0.0 0.0 0.00 0.00 0.00 1020.7
20260831110025 0 0.0 0.0 0.00 0.00 0.00 1020.4
20260831104521 0 0.0 0.0 0.00 0.00 0.00 1020.2
20260831103022 0 0.0 0.0 0.00 0.00 0.00 1020.0
20260831101513 0 0.0 0.0 0.00 0.00 0.00 1020.2
20260831100013 0 0.0 0.0 0.00 0.00 0.00 1020.0
20260831094505 0 0.0 0.0 0.00 0.00 0.00 1020.0
20260831093001 0 0.0 0.0 0.00 0.00 0.00 1019.9
20260831091502 0 0.0 0.0 0.00 0.00 0.00 1019.9
20260831090001 0 0.0 0.0 0.00 0.00 0.00 1019.7
20260831084607 0 0.0 0.0 0.00 0.00 0.00 1019.8
20260831083101 0 0.0 0.0 0.00 0.00 0.00 1019.6
20260831081600 0 0.0 0.0 0.00 0.00 0.00 1019.5
20260831080053 0 0.0 0.0 0.00 0.00 0.00 1019.7
20260831074549 0 0.0 0.0 0.00 0.00 0.00 1020.0
20260831073047 0 0.0 0.0 0.00 0.00 0.00 1019.8
20260831071602 0 0.0 0.0 0.00 0.00 0.00 1019.6
20260831070036 0 0.0 0.0 0.00 0.00 0.00 1019.8
20260831064535 0 0.0 0.0 0.00 0.00 0.00 1019.7
20260831063037 0 0.0 0.0 0.00 0.00 0.00 1019.5
20260831061528 0 0.0 0.0 0.00 0.00 0.00 1019.8
20260831060025 71 233 0.0 0.0 0.00 0.00 0.00 87 1019.8
20260831054525 71 233 0.0 0.0 0.00 0.00 0.00 86 1019.6
20260831053041 71 233 0.0 0.0 0.00 0.00 0.00 85 1019.4
20260831051521 71 141 0.0 0.0 0.00 0.00 0.00 85 1019.4
20260831050019 71 141 0.0 0.0 0.00 0.00 0.00 84 1019.3
20260831044517 72 250 0.0 0.0 0.00 0.00 0.00 84 1019.8
20260831043015 72 250 0.0 0.0 0.00 0.00 0.00 83 1019.7
20260831041513 73 250 0.0 0.0 0.00 0.00 0.00 82 1019.7
20260831040009 73 250 0.0 0.0 0.00 0.00 0.00 82 1020.0
20260831034509 73 250 0.0 0.0 0.00 0.00 0.00 81 1019.9
20260831033024 73 256 0.0 0.0 0.00 0.00 0.00 80 1019.9
20260831031509 74 231 0.0 0.0 0.00 0.00 0.00 80 1020.0
20260831030008 73 233 0.0 0.0 0.00 0.00 0.00 81 1019.9
20260831024508 72 255 0.0 0.0 0.00 0.00 0.00 87 1019.9
20260831023007 72 252 0.0 0.0 0.00 0.00 0.00 90 1020.0
20260831021510 72 252 0.0 0.0 0.00 0.00 0.00 90 1020.0
20260831020007 73 252 0.0 0.0 0.00 0.00 0.00 90 1019.9
20260831014506 73 252 0.0 0.0 0.00 0.00 0.00 90 1019.8
20260831013006 73 252 0.0 0.0 0.00 0.00 0.00 89 1020.0
20260831011505 73 252 0.0 0.0 0.00 0.00 0.00 89 1019.9
20260831010004 73 261 0.0 0.0 0.00 0.00 0.00 89 1019.7
20260831004504 74 261 0.0 0.0 0.00 0.00 0.00 88 1019.4
20260831003003 74 261 0.0 0.0 0.00 0.00 0.00 87 1019.0
20260831001503 75 261 0.0 0.0 0.00 0.00 0.00 86 1018.9
20260831000002 76 261 0.0 0.0 0.00 0.00 0.00 84 1018.9
20260830234502 76 261 0.0 0.0 0.00 0.00 0.00 83 1018.9